Messwerte Reynosa

Temperatur

Temperatur
°C
1573621200 23.00 23.00 4
1573624800 0.00 0.00
1573628400 1.00 1.00
1573632000 2.00 2.00
1573635600 3.00 3.00
1573639200 4.00 4.00
1573642800 5.00 5.00
1573646400 6.00 6.00 5
1573650000 7.00 7.00 5
1573653600 8.00 8.00 6
1573657200 9.00 9.00 6
1573660800 10.00 10.00 5
1573664400 11.00 11.00 6
1573668000 12.00 12.00
1573671600 13.00 13.00 6
1573675200 14.00 14.00 6
1573678800 15.00 15.00 6
1573682400 16.00 16.00 6
1573686000 17.00 17.00 6
1573689600 18.00 18.00 5
1573693200 19.00 19.00 5
1573696800 20.00 20.00 5
1573700400 21.00 21.00 6
1573704000 22.00 22.00 6

Aktuellste Messwerte

Wettercharakter
Wetter: trüb und nass
Temperatur
6 °C
Feuchtigkeit
85 %
Wind
0 km/h, -
Luftdruck
1021 hPa
Messzeit: 13. November 2019, 23.00Datenquelle: METAR

Weitere Messstationen in der Nähe

Messstation Temperatur Entfernung
McAllen 7 °C 18 km
Edinburg 6 °C 48 km
Harlingen 6 °C 62 km
Matamoros - 76 km
Brownsville 7 °C 82 km
Port Isabel 7 °C 89 km
Falfurrias 7 °C 133 km

Wind

Windrichtung Böen Mittelwind
° km/h km/h
1573621200 23.00 22.00 - 23.00 310° 5
1573624800 0.00 23.00 - 0.00
1573628400 1.00 0.00 - 1.00
1573632000 2.00 1.00 - 2.00
1573635600 3.00 2.00 - 3.00
1573639200 4.00 3.00 - 4.00
1573642800 5.00 4.00 - 5.00
1573646400 6.00 5.00 - 6.00 320° 10
1573650000 7.00 6.00 - 7.00 310° 10
1573653600 8.00 7.00 - 8.00 320° 10
1573657200 9.00 8.00 - 9.00 320° 15
1573660800 10.00 9.00 - 10.00 320° 15
1573664400 11.00 10.00 - 11.00 290° 5
1573668000 12.00 11.00 - 12.00
1573671600 13.00 12.00 - 13.00 290° 10
1573675200 14.00 13.00 - 14.00 300° 5
1573678800 15.00 14.00 - 15.00 310° 10
1573682400 16.00 15.00 - 16.00 290° 10
1573686000 17.00 16.00 - 17.00 310° 5
1573689600 18.00 17.00 - 18.00 320° 5
1573693200 19.00 18.00 - 19.00 330° 5
1573696800 20.00 19.00 - 20.00 360° 5
1573700400 21.00 20.00 - 21.00 340° 5
1573704000 22.00 21.00 - 22.00 0

Ihre Wetterstation

Fehlt Ihre Wetterstation auf unserem Portal?

Schreiben Sie an network@meteonews.ch

Klima

Wann ist es am wärmsten? Wann regnet es am wenigsten? Unsere Klimadaten geben Auskunft.